Regional Weather Roundup
Issued by NWS

Home | Current Version | Previous Version | Text Only | Print | Product List | Glossary On
Versions: 1 2 3 4 5 6 7 8 9 10 11 12 13 14 15 16 17 18 19 20 21 22 23 24 25 26 27 28 29 30 31 32 33 34 35 36 37 38 39 40 41 42 43 44 45 46 47 48 49 50
399
ASUS44 KFWD 230615
RWRTX
NORTH TEXAS HOURLY WEATHER ROUNDUP
NATIONAL WEATHER SERVICE FORT WORTH TX
100 AM CDT THU MAR 23 2017

NOTE: "FAIR" INDICATES FEW OR NO CLOUDS BELOW 12,000 FEET WITH NO
SIGNIFICANT WEATHER AND/OR OBSTRUCTIONS TO VISIBILITY.

TXZ118-119-230700-
DALLAS/FORT WORTH METROPLEX

CITY           SKY/WX    TMP DP  RH WIND       PRES   REMARKS
DFW AIRPORT    CLEAR     69  61  75 SE10      30.04F
6HR MIN TEMP:  68; 6HR MAX TEMP:  80;

DALLAS LOVE    CLEAR     72  59  63 S17       30.06F
6HR MIN TEMP:  70; 6HR MAX TEMP:  79;

FTW MEACHAM    CLEAR     71  57  61 SE13      30.05F
6HR MIN TEMP:  71; 6HR MAX TEMP:  80;

DAL-EXECUTIVE  CLEAR     66  60  81 SE8       30.07S
6HR MIN TEMP:  65; 6HR MAX TEMP:  78;

FTW-ALLIANCE   CLEAR     68  59  73 S7        30.05F
6HR MIN TEMP:  68; 6HR MAX TEMP:  80;

FTW-NAS-JRB    CLEAR     71  58  63 SE12      30.05F
6HR MIN TEMP:  71; 6HR MAX TEMP:  81;

FTW-SPINKS     CLEAR     65  58  76 SE6       30.08S
6HR MIN TEMP:  65; 6HR MAX TEMP:  78;

ARLINGTON      CLEAR     69  58  67 SE12      30.06F
6HR MIN TEMP:  67; 6HR MAX TEMP:  78;

GRAND PRAIRIE  CLEAR     69  58  66 SE8       30.08S
6HR MIN TEMP:  68; 6HR MAX TEMP:  78;

ADDISON        CLEAR     68  60  75 SE9       30.09S
6HR MIN TEMP:  68; 6HR MAX TEMP:  78;

MESQUITE       CLEAR     64  60  87 SE5       30.08S
6HR MIN TEMP:  64; 6HR MAX TEMP:  76;

LANCASTER      CLEAR     62  58  87 SE7       30.09S
6HR MIN TEMP:  61; 6HR MAX TEMP:  76;

$$

TXZ091>094-102>105-117-120-121-131>134-230700-
NORTH CENTRAL TEXAS

CITY           SKY/WX    TMP DP  RH WIND       PRES   REMARKS
SHRMAN/DENISON CLEAR     64  58  82 SE8       30.09S
6HR MIN TEMP:  64; 6HR MAX TEMP:  70;

GAINESVILLE    CLEAR     65  60  83 SE10      30.07F
6HR MIN TEMP:  64; 6HR MAX TEMP:  70;

BOWIE          CLEAR     68  59  73 SE6       30.04S
6HR MIN TEMP:  68; 6HR MAX TEMP:  77;

BRIDGEPORT     CLEAR     67  57  69 SE7       30.06S
6HR MIN TEMP:  67; 6HR MAX TEMP:  80;

DECATUR        CLEAR     67  58  72 SE7       30.05F
6HR MIN TEMP:  67; 6HR MAX TEMP:  80;

DENTON         CLEAR     67  62  84 SE10      30.04F
6HR MIN TEMP:  67; 6HR MAX TEMP:  79;

MCKINNEY       CLEAR     66  61  84 SE8       30.07F
6HR MIN TEMP:  66; 6HR MAX TEMP:  74;

BONHAM         CLEAR     61  57  88 E8        30.10F
GREENVILLE     CLEAR     63  57  82 SE6       30.10S
ROCKWALL       CLEAR     65  60  84 SE8       30.08F
6HR MIN TEMP:  65; 6HR MAX TEMP:  74;

TERRELL        CLEAR     66  59  78 SE7       30.10S
6HR MIN TEMP:  66; 6HR MAX TEMP:  75;

WAXAHACHIE     CLEAR     66  59  78 SE8       30.09F
6HR MIN TEMP:  66; 6HR MAX TEMP:  76;

CLEBURNE       CLEAR     68  61  77 S10       30.08S
GRANBURY       CLEAR     69  58  69 SE8       30.07S
6HR MIN TEMP:  68; 6HR MAX TEMP:  81;

$$

TXZ083>090-098>101-113>116-127>130-139>142-154-155-230700-
WESTERN NORTH TEXAS

CITY           SKY/WX    TMP DP  RH WIND       PRES   REMARKS
WICHITA FALLS  CLEAR     67  57  70 SE15      29.99F
6HR MIN TEMP:  65; 6HR MAX TEMP:  79;

WF-KICKAPOO    CLEAR     67  58  72 SE10      30.02S
6HR MIN TEMP:  67; 6HR MAX TEMP:  81;

VERNON         CLEAR     66  56  72 SE12      29.98S
6HR MIN TEMP:  53; 6HR MAX TEMP:  84;

ABILENE        CLEAR     68  58  70 S20G30    30.00F
6HR MIN TEMP:  67; 6HR MAX TEMP:  79;

ABILENE-DYESS  CLEAR     69  59  70 SW28G33   29.96F
6HR MIN TEMP:  69; 6HR MAX TEMP:  81;

GRAHAM         CLEAR     69  59  70 SE7       30.00F
6HR MIN TEMP:  69; 6HR MAX TEMP:  83;

BRECKENRIDGE   CLEAR     71  57  61 S13G20    30.00F
6HR MIN TEMP:  71; 6HR MAX TEMP:  83;

CISCO          CLOUDY    68  57  68 S17G23    30.03F
RANGER         CLEAR     66  57  72 S14       30.04F
MINERAL WELLS  CLEAR     65  58  78 SE8       30.03S
6HR MIN TEMP:  64; 6HR MAX TEMP:  80;

STEPHENVILLE   CLEAR     66  58  74 S9        30.09S
6HR MIN TEMP:  66; 6HR MAX TEMP:  79;

COMANCHE       CLEAR     65  59  82 S10       30.06S
6HR MIN TEMP:  64; 6HR MAX TEMP:  79;

BROWNWOOD      CLOUDY    66  57  72 SE9       30.05F
COLEMAN        CLEAR     65  56  72 S8        30.04F
6HR MIN TEMP:  65; 6HR MAX TEMP:  80;

$$

TXZ143>147-156>162-174-175-230700-
CENTRAL TEXAS

CITY           SKY/WX    TMP DP  RH WIND       PRES   REMARKS
WACO           CLEAR     68  61  78 S14       30.08S
6HR MIN TEMP:  68; 6HR MAX TEMP:  77;

WACO-MCGREGOR  CLEAR     66  60  81 S10       30.09R
6HR MIN TEMP:  65; 6HR MAX TEMP:  79;

HILLSBORO      CLEAR     67  60  77 SE10      30.08S
6HR MIN TEMP:  67; 6HR MAX TEMP:  78;

CORSICANA      CLEAR     67  59  75 S9        30.10F
6HR MIN TEMP:  66; 6HR MAX TEMP:  78; 6HR PCP: TRACE;

MEXIA          CLEAR     64  58  81 SE3       30.09F
6HR MIN TEMP:  64; 6HR MAX TEMP:  78;

HEARNE         CLEAR     67  64  91 SE7       30.12S
6HR MIN TEMP:  67; 6HR MAX TEMP:  79;

CAMERON        CLEAR     67  63  86 S12G17    30.10S
6HR MIN TEMP:  67; 6HR MAX TEMP:  80;

TEMPLE         CLEAR     67  61  81 S15       30.10R
6HR MIN TEMP:  67; 6HR MAX TEMP:  78;

KILLEEN        CLEAR     65  60  82 SE13      30.08R
6HR MIN TEMP:  64; 6HR MAX TEMP:  76;

KILLEEN-SKYLRK CLEAR     67  63  87 S14       30.09S
6HR MIN TEMP:  67; 6HR MAX TEMP:  79;

FORT HOOD      CLEAR     66  62  86 S10       30.06S
6HR MIN TEMP:  66; 6HR MAX TEMP:  78;

GATESVILLE     CLEAR     68  61  77 S9        30.10S
HAMILTON       CLEAR     67  59  74 S13G18    30.08S
6HR MIN TEMP:  65; 6HR MAX TEMP:  78;

LAMPASAS       CLEAR     68  64  85 S8        30.07F
6HR MIN TEMP:  66; 6HR MAX TEMP:  78;

$$

TXZ095>097-106>112-122>126-135>138-148>153-164>167-230700-
EAST TEXAS

CITY           SKY/WX    TMP DP  RH WIND       PRES   REMARKS
PARIS          CLEAR     61  48  63 E15       30.14S
6HR MIN TEMP:  61; 6HR MAX TEMP:  72;

SULPHUR SPRNGS CLEAR     63  58  84 E7        30.13F
6HR MIN TEMP:  63; 6HR MAX TEMP:  75;

MOUNT PLEASANT CLEAR     63  55  74 E7        30.16R
6HR MIN TEMP:  63; 6HR MAX TEMP:  76;

GILMER         CLEAR     64  58  79 CALM      30.13S
6HR MIN TEMP:  64; 6HR MAX TEMP:  75;

MINEOLA        CLEAR     63  59  88 SE3       30.11F
TYLER          CLEAR     67  60  78 SE8       30.11F
6HR MIN TEMP:  66; 6HR MAX TEMP:  76;

LONGVIEW       CLEAR     64  60  87 SE6       30.13R
6HR MIN TEMP:  63; 6HR MAX TEMP:  76;

MARSHALL       CLEAR     65  59  80 E3        30.16S
6HR MIN TEMP:  61; 6HR MAX TEMP:  75;

ATHENS         CLEAR     59  59 100 SE3       30.10S
PALESTINE      CLEAR     67  63  85 SE5       30.13S
JACKSONVILLE   CLEAR     67  63  87 S8        30.15S
HENDERSON      CLEAR     64  58  81 CALM      30.14S
6HR MIN TEMP:  63; 6HR MAX TEMP:  77;

CENTER         CLEAR     63  62  96 CALM      30.15S
6HR MIN TEMP:  63; 6HR MAX TEMP:  80;

NACOGDOCHES    CLEAR     64  61  88 S3        30.13S
6HR MIN TEMP:  59; 6HR MAX TEMP:  79;

LUFKIN         CLEAR     66  63  90 S7        30.14F
6HR MIN TEMP:  66; 6HR MAX TEMP:  79;

$$

SUPPLEMENTAL OBSERVATIONS (CENTRAL)

CITY           SKY/WX    TMP DP  RH WIND       PRES   REMARKS
D



USA.gov is the U.S. government's official web portal to all federal, state and local government web resources and services.